Location: Bailleul
(50.3375°N, 2.8513°E)
Time: 21:10:12
(UTC+00:00)

Cosmos 1818 - Pass Details

Date: 19 April 2021
Orbit: 772 x 802 km, 65.0° (Epoch: 18 May)

Event Time Altitude Azimuth Distance (km) Brightness Sun altitude
Rises 20:15:11 0° 213° (SSW) 3,273 6.7 -12.8°
Reaches altitude 10° 20:17:35 10° 212° (SSW) 2,352 6.0 -13.2°
Maximum altitude 20:23:00 78° 128° (SE) 817 3.5 -13.8°
Drops below altitude 10° 20:28:29 10° 42° (NE) 2,383 6.0 -14.5°
Sets 20:30:56 0° 41° (NE) 3,319 6.8 -14.8°
